GFSSW_con_lsi_000.txt.gz
Lid_Strength_Index
0 0 0 1 1 1 1 1 0 -0 -0 -0 -1 -1 -1 -0 1 3 6 4 2 -1 -0 4 5 5 5 4 4 5 10 11 11 11 10 9 10 9 8 9 9 8 10 9 8
0 0 1 1 1 1 1 1 0 -0 -0 -0 -0 -1 -1 0 2 6 3 0 -1 -1 5 6 6 6 6 6 6 8 10 10 9 9 10 9 10 10 10 10 10 9 10 9 9
1 1 1 1 1 1 1 1 0 0 -0 -0 -1 -1 -0 1 4 6 1 -0 0 2 5 5 5 5 7 7 8 8 10 9 9 8 9 10 10 10 11 12 11 12 12 11 11
1 1 1 2 2 2 1 1 0 0 -0 -0 -1 -1 0 2 8 5 0 -0 0 3 5 6 6 7 8 9 8 10 8 8 8 8 9 10 10 11 11 11 11 11 11 11 11
1 2 2 2 2 2 2 1 0 0 0 -0 -1 -1 1 5 6 4 1 3 5 5 6 6 8 8 10 9 9 10 9 9 9 9 10 9 11 11 12 11 11 11 11 12 12
1 2 2 2 2 2 2 1 1 0 0 -0 -1 1 2 6 4 3 5 5 6 6 6 7 8 8 9 9 10 9 10 9 9 10 10 11 12 11 12 11 12 11 12 12 12
2 2 2 2 2 2 2 1 1 1 0 -1 -0 1 3 5 4 3 5 6 6 7 6 7 7 8 8 9 9 10 12 11 11 11 11 11 12 12 12 11 12 13 13 12 12
2 2 2 2 3 3 2 1 1 1 0 -0 0 2 5 3 3 4 4 5 5 6 6 7 7 8 9 9 10 12 12 14 11 11 11 12 15 13 12 12 14 14 15 14 13
2 3 2 2 3 3 2 1 1 0 0 0 2 3 6 3 4 4 5 7 6 6 7 7 7 9 9 11 13 12 15 15 13 11 11 12 14 13 12 13 15 15 15 15 14
2 3 2 3 3 2 2 1 0 1 2 3 4 5 5 5 4 4 5 6 7 7 7 8 9 11 11 13 17 16 16 15 15 13 12 13 13 13 13 14 16 16 16 16 16
2 3 3 3 3 2 2 3 5 4 5 7 7 7 5 4 4 5 6 7 6 8 9 9 12 13 12 13 13 14 14 15 13 12 14 14 14 13 14 15 17 17 17 17 16
2 3 3 4 3 2 2 6 6 5 10 6 6 6 4 5 7 7 6 9 8 10 9 10 12 12 12 12 12 13 15 15 14 12 14 15 15 15 15 16 16 17 17 17 17
2 3 3 4 3 2 5 6 4 4 8 7 6 6 6 6 8 8 8 9 10 10 11 13 11 11 12 13 13 14 15 16 16 14 14 15 17 17 16 16 16 16 16 16 17
3 3 4 4 4 4 5 4 4 4 11 9 9 7 7 7 9 7 8 9 9 11 13 13 12 12 13 13 13 16 15 15 16 18 20 16 22 18 18 18 17 17 18 18 17
3 4 5 4 5 6 5 4 4 6 17 9 8 6 7 9 8 8 8 9 11 11 13 13 14 14 14 14 13 15 15 16 16 18 19 19 21 19 18 19 18 18 17 18 17
3 4 5 4 4 5 5 5 6 11 16 10 8 8 9 9 9 8 9 9 10 12 12 13 12 13 14 12 13 14 16 16 17 18 23 19 20 20 19 17 18 18 18 17 17
4 5 5 5 6 5 4 6 11 14 9 11 10 9 10 10 9 10 10 12 13 14 14 13 14 13 13 15 14 15 18 23 23 23 23 19 22 19 19 18 18 18 18 18 17
4 5 4 5 4 5 4 10 15 11 10 10 10 10 11 10 10 11 13 14 11 13 15 16 17 14 13 15 18 17 19 23 26 25 24 21 24 20 18 17 17 17 17 17 17
5 4 4 5 4 5 9 13 14 11 9 10 10 12 11 11 12 13 13 13 12 12 16 16 16 15 16 16 16 18 21 18 22 27 28 23 20 18 18 18 18 18 18 18 17
4 5 4 4 5 5 12 12 11 8 9 10 12 10 13 12 13 13 13 12 13 13 13 15 18 16 18 17 18 19 17 22 22 30 30 23 22 21 20 19 19 19 19 18 17
5 7 6 4 4 8 15 13 10 7 8 10 11 11 11 12 11 12 12 12 12 14 15 16 16 19 18 20 20 21 22 21 21 22 26 29 24 19 19 18 20 19 18 17 17
5 9 5 4 9 9 11 10 9 9 9 9 10 10 11 11 11 12 12 11 12 14 17 16 17 21 19 19 19 20 20 20 25 25 24 24 24 17 17 18 18 18 17 17 16
7 7 5 5 12 11 9 10 9 9 10 11 11 10 10 11 14 12 11 14 13 15 17 17 19 21 21 22 20 22 21 21 21 22 24 25 24 17 17 18 18 19 18 17 16
7 12 9 9 9 11 11 11 11 10 10 10 10 10 11 12 11 13 13 15 14 15 15 14 18 19 19 18 20 23 22 21 21 24 22 23 21 18 17 17 19 18 18 17 16
6 9 8 13 12 10 10 10 11 11 10 9 11 11 11 13 13 13 12 16 16 16 17 17 21 20 19 20 20 20 21 22 22 21 23 21 21 18 18 19 20 19 17 16 16
8 9 9 9 9 11 11 11 11 10 9 11 11 10 11 13 12 13 12 13 16 18 18 17 22 19 22 21 21 23 22 21 21 20 21 20 21 15 16 18 19 17 17 17 16
5 5 7 9 10 10 11 11 10 9 8 8 8 10 12 11 10 12 13 12 13 17 19 19 21 23 24 22 22 25 22 21 20 19 19 22 19 17 18 18 19 18 17 17 17

GFSSW_con_lsi_006.txt.gz
Lid_Strength_Index
0 0 0 0 0 0 1 0 -0 -0 -0 -0 -0 -1 -1 -0 1 6 8 5 3 -1 -0 5 7 8 8 8 7 9 12 14 14 13 13 11 12 11 12 13 13 12 13 12 12
0 0 0 0 0 0 1 0 0 -0 -0 -0 -0 -1 -0 0 5 7 3 0 -2 -1 7 8 9 8 9 9 9 11 13 13 12 12 12 12 12 12 13 14 14 14 13 13 13
0 1 1 0 1 0 1 0 0 0 -0 -0 -0 -1 -0 2 7 7 0 -1 -1 0 6 8 8 8 10 10 11 12 13 12 11 11 11 12 13 12 13 15 14 15 14 14 14
1 1 1 1 1 1 1 1 0 0 -0 -0 -0 -1 0 4 12 6 -1 -1 -1 4 7 7 8 10 12 12 10 13 11 11 10 11 11 12 12 13 14 14 13 14 14 15 15
1 1 1 1 1 1 1 1 0 0 0 -0 -1 -0 4 8 9 5 1 3 6 6 8 8 10 11 12 12 11 13 11 11 11 11 11 11 13 14 15 14 14 14 14 15 15
2 1 1 1 1 1 1 1 0 0 0 -0 -1 0 6 9 6 5 7 6 7 7 8 9 10 9 11 11 12 12 11 11 10 11 11 12 14 14 14 14 15 14 15 15 15
1 1 1 1 1 1 2 1 0 0 0 -0 -1 2 6 8 6 6 7 8 7 8 8 8 9 10 10 11 10 11 13 12 12 12 12 12 15 14 14 14 15 15 15 15 15
2 1 1 1 1 2 2 1 1 0 -0 -0 -0 4 8 5 6 6 7 7 7 8 7 8 8 9 11 11 11 14 14 15 13 12 12 13 16 14 14 15 16 17 17 16 16
2 1 1 1 1 2 2 1 1 -0 -0 -0 3 6 9 4 6 6 7 8 8 8 8 7 8 10 11 13 15 15 16 16 15 12 13 14 16 14 15 15 17 18 18 18 18
1 1 2 1 2 2 2 1 1 1 3 3 5 8 8 8 6 6 7 8 9 9 8 9 11 13 13 14 16 17 17 16 16 14 14 14 15 15 14 16 17 18 18 18 18
1 1 2 2 2 2 3 7 8 8 8 9 10 9 8 5 6 7 8 8 8 10 11 11 13 14 13 14 14 15 16 16 15 12 14 15 14 16 14 17 19 19 19 19 18
1 2 2 2 2 2 6 10 9 8 11 9 8 7 6 7 9 8 8 10 10 12 12 13 14 12 12 13 14 14 16 16 14 14 15 15 16 14 15 16 16 18 19 19 18
1 2 2 2 3 5 8 8 6 7 12 10 8 7 7 8 9 9 10 11 12 13 13 13 12 12 13 14 15 15 16 16 16 16 16 17 19 16 17 16 18 18 18 18 18
1 2 3 3 6 8 8 7 6 7 15 13 10 8 9 9 11 9 10 11 12 12 13 14 13 13 14 14 14 17 15 15 16 18 21 19 22 19 19 18 18 18 19 19 19
1 2 4 4 9 9 7 6 7 10 21 13 10 7 9 10 10 10 10 11 12 12 13 13 15 15 15 14 13 15 15 16 17 19 21 20 22 20 20 20 19 18 19 20 19
2 2 4 6 9 8 8 8 10 15 20 13 10 11 11 11 11 10 11 11 12 14 14 13 13 14 14 13 14 14 15 17 18 20 24 21 21 23 22 19 18 18 19 19 19
2 3 5 6 9 8 7 10 17 19 14 13 12 11 12 12 12 11 12 14 13 15 16 15 15 14 13 15 14 15 18 20 23 24 22 21 23 18 18 18 18 18 19 20 19
1 4 5 6 7 8 8 13 20 17 15 12 12 13 13 12 12 13 14 14 13 14 17 17 17 15 14 15 15 16 17 20 24 24 19 22 23 20 19 19 17 17 19 19 19
3 6 6 6 7 7 13 17 16 15 13 12 13 15 14 13 12 14 15 15 12 13 14 17 17 16 16 15 15 17 19 17 21 31 28 23 21 19 20 21 21 20 20 20 20
6 6 7 6 6 9 16 14 14 12 11 12 15 13 15 14 14 15 15 14 13 12 12 14 17 17 17 16 17 17 16 20 21 25 28 24 22 20 22 22 21 21 21 21 20
6 10 9 7 7 11 15 15 13 10 10 11 13 14 13 13 14 15 14 13 12 14 14 15 15 18 18 18 17 19 19 19 19 19 23 25 19 19 20 19 21 20 20 20 20
5 11 9 7 12 15 14 15 12 12 10 10 11 12 12 12 14 14 14 12 12 14 15 15 17 19 19 18 18 17 17 17 21 22 21 21 21 18 18 18 19 20 20 20 19
9 10 6 6 13 13 13 13 12 14 13 13 13 12 11 13 14 13 12 12 13 13 15 15 18 21 19 20 20 20 19 16 18 18 20 23 20 20 20 20 20 20 20 20 19
10 14 11 10 11 13 13 13 12 10 11 12 13 13 14 14 12 14 14 14 13 13 10 12 17 17 17 16 18 20 21 19 17 20 20 20 19 16 18 21 21 21 20 20 19
9 13 12 15 14 12 13 14 14 13 11 10 12 11 12 14 13 14 13 15 16 13 14 14 17 17 14 14 17 16 16 19 20 19 20 18 17 15 14 16 20 19 20 19 19
9 11 12 15 14 13 13 14 15 15 14 14 13 12 11 13 12 13 11 15 14 17 17 16 17 17 18 16 17 19 17 17 17 17 18 17 18 14 13 19 20 20 19 19 19
6 8 9 11 14 14 14 14 14 13 13 12 12 11 14 13 9 9 11 12 11 14 17 18 18 19 19 18 19 22 19 18 17 16 17 20 17 14 16 19 20 20 19 18 19

GFSSW_con_lsi_009.txt.gz
Lid_Strength_Index
-0 -0 -0 -0 -0 0 0 0 0 -0 -0 -0 -0 -1 -1 -0 1 6 8 5 4 -1 0 6 8 8 8 8 8 10 13 15 15 14 13 12 12 12 12 13 14 13 14 13 12
-0 0 0 0 0 0 0 0 0 -0 -0 -0 -0 -1 -0 0 6 8 2 0 -2 -1 7 8 9 9 10 10 10 12 14 13 13 13 13 12 12 13 13 15 15 15 14 13 13
1 0 0 0 0 0 0 0 0 0 -0 0 -0 -0 -0 2 8 8 -0 -1 -1 0 7 8 8 9 11 10 12 13 14 12 12 11 11 12 13 13 14 15 15 15 15 15 15
1 1 1 1 1 0 0 1 0 0 0 0 -0 -0 1 5 13 7 -1 -1 -0 5 7 8 9 11 12 12 11 13 12 11 10 10 11 12 12 14 14 14 13 14 14 15 15
2 2 1 1 1 0 0 1 0 0 0 0 -0 -0 5 9 10 6 2 3 7 7 8 9 10 11 13 12 11 13 12 11 11 11 12 12 13 13 14 15 14 14 15 16 16
2 2 1 1 1 0 0 1 0 0 0 0 -0 0 5 10 6 6 7 7 7 8 9 9 10 10 11 11 12 12 12 12 11 11 12 12 14 14 14 15 15 15 16 16 16
1 2 1 1 1 0 0 1 1 0 0 -0 -1 3 7 8 6 7 7 8 8 8 9 9 9 10 10 12 11 12 13 12 12 12 12 12 14 14 14 15 16 16 16 16 16
1 2 1 1 1 1 1 1 1 0 -0 -0 -0 5 9 6 6 6 8 8 8 8 8 9 9 9 11 11 11 13 14 15 13 12 13 13 15 13 14 15 16 16 17 16 16
2 2 1 1 1 1 1 1 1 0 -0 -0 4 7 10 4 7 6 8 9 8 8 9 8 9 11 11 13 15 15 16 16 14 12 13 14 16 14 15 15 16 17 17 17 17
2 2 1 1 1 1 1 1 1 2 2 4 5 8 8 8 7 7 8 8 9 9 9 10 12 13 14 14 16 16 17 17 17 15 14 15 15 13 15 15 15 17 18 18 19
2 1 1 1 1 1 3 7 8 10 8 10 11 9 8 6 7 8 8 9 9 10 12 11 13 15 13 13 14 16 17 17 16 14 15 15 14 13 14 16 17 18 18 18 19
2 1 1 1 1 1 7 10 9 9 11 10 10 9 7 7 10 8 9 10 11 12 12 13 14 13 13 13 14 16 17 17 15 15 15 16 16 13 15 15 15 16 18 18 19
2 2 1 2 2 6 9 9 6 8 12 11 9 8 8 8 9 10 9 11 12 13 13 14 13 12 14 15 15 16 17 17 17 16 16 18 20 16 15 15 15 15 16 17 18
2 2 2 2 6 8 9 7 7 8 16 14 11 9 9 9 11 9 10 11 12 12 13 14 13 14 15 15 15 17 15 16 16 18 20 18 21 20 17 16 16 16 19 18 19
2 2 2 3 8 10 8 7 8 11 22 14 11 8 9 11 11 11 10 11 12 12 13 13 15 15 15 15 14 15 15 17 17 18 20 20 21 20 20 18 16 18 18 18 18
3 2 3 5 9 9 7 9 10 16 21 15 11 12 12 12 12 11 12 11 12 13 15 13 14 15 14 14 14 14 16 17 19 20 23 20 20 22 20 18 18 18 18 18 19
2 1 4 7 8 8 8 10 16 20 15 15 13 12 13 13 13 12 13 14 13 15 16 15 15 15 14 15 14 15 17 20 22 23 22 21 23 18 16 16 17 17 18 19 19
2 2 4 6 7 8 10 13 20 17 16 13 12 13 13 12 13 13 14 15 13 14 17 16 17 15 14 15 15 16 16 19 23 24 20 22 22 18 17 18 19 18 18 19 19
4 5 6 7 7 7 12 18 16 15 14 13 13 15 15 13 13 14 15 15 13 13 14 17 17 16 15 15 15 17 18 16 19 30 27 21 20 18 20 19 20 19 20 20 20
6 7 8 8 8 9 16 15 15 13 12 12 14 13 15 14 14 15 15 14 13 12 12 13 16 17 17 17 17 17 16 20 20 26 28 22 21 18 18 19 21 21 21 20 20
4 9 9 7 8 12 14 15 14 12 11 13 14 15 14 14 14 15 14 13 13 14 13 14 14 18 18 18 18 19 20 19 18 19 23 26 20 18 16 17 21 21 20 20 20
7 12 8 5 10 12 15 15 13 14 12 13 13 14 14 14 15 16 16 13 12 13 14 14 15 19 19 20 18 17 17 17 19 22 22 20 19 19 17 17 19 20 19 20 19
10 11 8 9 14 13 14 13 11 13 12 12 12 12 12 14 15 15 13 12 13 14 16 15 17 22 19 20 20 20 18 17 18 19 19 21 19 18 19 20 20 20 20 20 20
10 14 11 11 11 14 15 14 14 12 12 12 12 11 13 13 12 13 14 13 13 13 10 11 16 17 17 17 18 20 20 19 16 19 17 18 17 15 14 15 20 21 20 20 20
9 12 11 15 14 13 14 15 15 15 13 12 14 14 14 16 15 16 14 15 15 13 13 13 15 16 14 13 16 16 16 20 19 17 17 17 17 15 13 13 13 14 19 20 20
9 10 12 11 13 13 13 14 15 15 14 14 15 14 13 15 14 16 13 13 13 17 16 16 15 15 17 15 16 17 16 16 17 17 16 16 17 12 11 11 13 17 20 20 19
6 7 9 11 12 14 14 14 14 13 12 12 13 13 14 13 11 12 12 13 13 13 18 19 18 21 18 17 17 19 17 16 15 15 15 17 15 12 13 15 18 19 19 19 19

GFSSW_con_lsi_012.txt.gz
Lid_Strength_Index
0 -0 -0 -0 -0 -0 0 0 -0 -0 -0 -0 -0 -1 -1 -0 1 7 9 6 4 -1 0 7 8 9 8 9 9 10 13 15 15 15 13 12 13 14 13 14 14 14 14 13 12
1 1 -0 -0 0 0 -0 0 0 0 -0 -0 -0 -1 -0 0 7 9 2 0 -1 -1 8 9 10 9 10 10 10 12 14 14 13 13 13 12 13 13 14 15 15 15 14 13 13
1 1 1 0 0 -0 -0 0 0 0 0 -0 -0 -0 0 2 9 10 -0 -1 -0 1 7 9 9 9 11 11 12 13 15 12 12 12 12 12 14 13 14 16 15 15 15 15 15
2 2 2 1 0 0 -0 0 0 0 0 0 -0 -0 1 6 13 8 -0 -0 1 5 8 9 9 11 12 12 12 13 13 12 11 11 12 13 13 14 14 13 13 14 14 15 15
1 2 2 1 1 0 -0 -0 0 0 0 0 -0 -0 4 8 9 6 2 3 7 7 9 10 10 12 13 13 12 13 13 11 11 11 12 12 13 13 14 14 14 15 15 15 16
1 1 1 1 1 0 0 0 0 0 0 -0 -0 0 6 11 6 7 8 8 8 8 10 9 11 10 12 12 12 13 12 12 11 11 12 13 14 13 14 15 16 15 16 16 16
1 1 1 1 1 1 0 0 0 1 0 -0 -1 3 7 8 7 7 7 9 9 9 9 10 10 11 11 13 11 13 13 13 13 12 12 13 14 14 14 15 16 16 16 16 16
2 2 1 1 1 1 0 0 1 0 -0 -0 -1 5 9 6 6 7 8 8 8 8 8 9 9 10 12 12 12 14 14 15 14 12 13 14 15 13 14 16 16 17 17 16 16
2 2 1 1 1 1 1 1 1 0 -1 -0 5 7 9 4 7 7 9 9 9 9 9 8 9 12 12 14 15 15 16 16 14 13 14 15 15 13 15 16 16 16 17 16 17
2 2 1 1 1 1 1 1 1 2 2 4 6 8 9 9 7 7 9 9 9 10 9 10 12 13 14 14 17 16 17 17 16 15 15 16 15 12 14 16 15 15 16 16 16
2 2 1 1 1 1 3 8 9 11 9 10 11 10 9 7 7 8 9 9 9 11 12 12 13 14 14 14 14 15 17 17 16 14 15 15 15 13 12 16 15 16 17 16 16
3 2 2 1 1 1 8 10 10 10 12 10 10 10 8 8 10 9 9 11 12 13 13 13 14 13 13 14 15 16 17 17 16 15 15 16 16 14 12 13 14 14 16 16 16
3 3 2 1 2 6 9 10 7 8 13 12 9 9 9 8 10 10 10 12 13 13 14 14 13 12 13 15 16 17 18 18 17 17 17 18 18 18 15 14 14 14 14 15 16
3 3 2 2 6 9 9 8 7 9 17 15 12 10 9 9 11 10 10 11 13 13 13 13 13 14 15 15 15 17 16 17 17 19 20 17 20 19 16 15 15 15 16 16 16
3 3 2 3 7 10 8 7 8 12 23 14 11 9 10 11 12 12 11 12 13 13 13 13 15 15 15 15 15 16 16 17 18 19 21 20 22 20 19 18 14 14 15 15 17
3 3 2 6 9 9 8 9 11 16 21 16 11 12 12 12 12 12 12 11 13 14 14 14 15 15 15 15 16 15 17 18 20 21 23 19 20 21 20 18 16 16 16 17 18
2 3 4 6 8 8 8 11 16 20 16 16 13 12 13 13 13 12 13 14 14 16 16 15 15 16 14 16 15 16 17 20 22 23 21 21 23 18 17 16 15 15 17 18 19
4 4 4 6 8 8 10 13 19 17 17 14 13 13 14 13 14 13 15 15 14 15 17 17 17 16 15 14 15 17 16 19 24 24 20 23 23 19 17 16 18 18 18 18 20
3 6 7 8 8 8 12 18 18 16 15 14 13 15 15 13 13 14 15 15 13 13 13 16 16 16 15 16 15 17 18 16 20 29 26 20 20 18 17 17 18 18 18 18 20
5 6 7 5 7 10 16 15 16 13 14 13 16 14 16 15 15 15 15 14 13 12 12 13 15 17 17 18 19 18 17 19 20 24 28 22 22 19 16 16 16 18 19 19 20
6 9 9 7 7 9 14 16 16 13 13 14 16 17 16 16 16 17 16 15 14 15 13 14 14 17 19 19 19 20 20 19 18 20 23 26 20 18 16 15 15 16 18 19 20
7 12 9 7 12 12 14 15 12 13 12 12 13 14 15 15 15 16 16 13 13 14 15 14 14 16 16 19 19 18 17 17 19 21 22 22 19 17 16 15 16 17 18 19 20
9 10 9 9 15 15 15 15 13 14 14 14 14 12 12 13 14 14 13 12 12 12 14 13 15 17 18 19 19 19 17 17 17 19 21 21 20 17 18 18 18 18 19 20 20
9 13 12 11 12 14 15 15 15 13 14 14 15 13 15 15 13 15 16 15 14 13 11 11 15 17 18 18 18 20 19 17 16 19 18 19 17 15 13 13 12 16 19 20 20
9 11 12 15 14 13 14 15 16 16 14 13 15 14 15 16 15 15 15 16 16 15 15 14 17 16 15 15 18 18 18 18 19 18 19 18 17 16 13 12 12 12 15 19 20
8 10 11 12 12 13 13 14 15 15 15 15 15 15 13 15 15 16 14 15 15 18 18 17 17 16 17 15 17 17 17 16 18 18 18 17 17 13 11 10 12 12 13 18 19
5 6 9 11 12 14 14 13 14 12 12 12 13 13 14 14 12 12 12 13 13 15 19 20 19 23 19 17 18 20 18 16 15 15 16 19 16 13 13 12 12 12 16 17 18

GFSSW_con_lsi_015.txt.gz
Lid_Strength_Index
1 1 0 -0 -0 -0 -0 -1 -0 -0 -0 -0 -0 -1 -1 -0 1 7 9 5 4 -1 -0 6 8 7 7 8 8 9 12 14 13 14 12 12 11 12 12 12 12 11 12 11 11
1 1 1 0 0 -0 -0 -0 -0 0 -0 -0 -0 -1 -1 0 8 9 3 -1 -1 -1 8 8 9 8 9 9 9 11 13 12 12 12 12 12 11 12 12 13 13 13 13 13 12
1 1 1 1 1 0 -0 -0 -0 0 0 0 -0 -0 -0 2 8 10 0 -1 -0 1 7 8 8 9 10 9 10 11 13 11 11 11 11 11 12 12 12 13 12 12 13 13 13
1 1 1 1 1 1 0 -0 -0 0 0 0 -0 -0 0 6 12 8 -0 -0 1 5 8 9 9 10 11 12 11 12 11 11 10 10 11 11 12 12 13 10 11 12 12 13 13
1 1 1 1 1 1 1 0 -0 -0 0 0 -0 -0 5 9 9 6 2 3 7 8 9 9 10 11 12 12 12 12 12 11 10 11 11 12 12 12 13 12 12 13 13 13 13
2 1 1 1 1 1 1 0 -0 0 0 -0 -1 0 6 10 7 7 8 8 8 8 9 9 10 10 11 11 12 12 11 11 11 11 11 12 12 12 12 14 14 14 14 14 14
2 2 1 1 1 1 1 0 0 0 1 0 -1 4 8 8 6 8 7 9 9 9 9 9 9 10 10 12 11 12 13 12 12 12 12 12 13 13 12 14 14 15 14 14 14
2 2 2 1 1 1 1 0 0 1 0 -0 -0 6 9 6 6 7 8 9 8 8 8 9 9 9 11 11 12 13 14 15 13 12 12 12 14 11 13 14 13 15 15 15 14
2 2 2 2 1 1 1 1 1 1 -0 -0 5 8 10 4 7 7 9 9 9 8 9 8 9 11 11 13 14 14 15 16 14 13 13 13 14 12 14 15 14 15 15 15 14
2 2 2 2 1 1 1 1 2 2 3 4 6 8 9 9 7 7 9 9 9 9 9 10 12 13 14 14 17 16 16 16 16 14 14 15 15 12 13 15 13 13 15 15 15
2 3 2 2 1 1 3 8 9 12 10 10 10 11 9 7 7 9 9 9 9 10 12 12 13 14 13 13 14 15 15 16 15 14 15 15 15 13 11 14 13 14 15 15 14
3 3 3 2 1 1 8 10 10 10 12 10 11 10 9 8 10 9 9 11 11 13 12 13 14 13 13 14 14 16 16 16 15 15 15 16 16 13 12 11 11 12 14 15 14
3 4 3 3 1 7 10 9 7 9 13 12 10 10 10 8 10 10 10 12 13 14 14 14 14 13 13 15 15 16 17 17 16 16 16 18 18 17 15 14 12 12 13 14 14
3 4 4 3 6 9 10 8 7 9 18 15 13 10 8 9 11 10 11 11 13 14 14 14 13 13 15 15 15 16 15 16 17 18 19 17 19 18 16 14 13 12 14 14 15
4 4 4 4 9 11 9 8 9 13 23 15 13 9 10 11 12 12 11 12 14 13 13 14 15 15 15 14 14 15 16 16 17 18 20 19 21 18 19 17 14 13 14 14 15
4 4 4 6 10 10 10 10 11 17 22 16 11 12 12 12 12 12 12 12 12 13 15 14 14 14 14 15 15 15 16 17 20 20 23 18 19 20 19 17 15 14 14 14 16
4 4 5 7 9 9 9 12 18 22 16 17 14 13 14 13 13 13 14 14 15 16 16 15 15 15 14 15 15 16 17 19 21 23 21 21 23 18 17 16 14 14 14 15 15
3 4 5 7 9 9 12 13 21 19 18 14 13 14 14 13 14 13 15 15 14 15 16 16 16 16 15 14 15 17 15 18 22 23 20 24 23 18 16 14 15 16 16 16 17
3 6 7 6 7 9 13 19 20 17 15 15 14 15 15 13 13 14 15 15 13 12 13 16 16 16 15 15 15 17 18 16 20 30 25 20 19 17 17 17 17 17 17 17 17
5 7 7 7 8 9 14 16 17 15 16 15 17 15 17 15 15 15 16 15 14 13 12 14 16 17 17 18 19 18 17 19 20 23 26 20 19 18 17 16 15 16 16 16 16
6 9 8 7 7 11 15 17 17 13 13 14 16 17 17 17 16 17 16 15 14 14 13 14 14 17 18 19 19 19 19 19 17 19 22 22 20 18 16 15 15 14 15 16 16
7 12 9 6 11 12 15 15 13 15 14 14 15 16 17 15 15 16 16 13 11 12 14 13 13 15 16 19 18 17 16 16 19 20 22 21 19 16 16 16 15 15 15 16 16
9 10 8 7 15 14 16 15 14 15 15 15 15 15 15 16 17 16 15 14 13 13 14 14 16 19 18 20 20 19 19 17 18 20 20 21 19 15 17 16 15 16 17 16 17
9 13 12 11 10 13 14 15 15 13 13 15 15 15 16 17 14 16 17 15 14 14 11 12 16 16 18 17 19 20 20 18 18 19 18 19 17 15 14 13 13 16 17 16 17
8 12 12 15 14 12 12 13 14 16 14 13 14 14 15 16 16 16 15 15 15 14 15 14 17 16 15 15 16 19 18 18 19 18 19 17 17 15 13 12 12 12 12 13 18
8 9 10 11 11 13 12 14 14 13 14 15 15 14 14 15 15 16 15 15 15 18 16 16 17 15 17 15 16 17 16 16 17 17 17 17 17 13 12 12 12 12 12 13 14
4 4 7 10 11 13 13 13 12 12 11 12 13 13 14 14 12 11 12 12 13 14 17 17 17 19 20 17 17 20 17 16 15 14 15 17 15 12 13 13 13 12 12 12 12

GFSSW_con_lsi_021.txt.gz
Lid_Strength_Index
1 0 0 0 0 0 -0 -0 -0 -1 -0 -0 -0 -1 -1 -1 0 3 5 3 2 -1 0 3 4 4 3 4 4 4 8 8 8 9 8 7 7 7 6 6 7 6 6 6 5
1 1 1 1 0 0 0 0 0 -0 -0 -0 -0 -0 -1 -0 2 4 1 0 -0 -1 4 4 5 4 4 5 5 6 7 7 7 7 7 7 7 6 8 7 7 6 6 7 6
2 2 1 1 1 0 0 0 0 0 -0 0 0 -0 -0 0 4 4 -0 -1 -0 1 4 4 4 4 5 5 5 6 8 7 7 6 6 7 7 6 7 7 6 6 6 7 7
2 2 2 2 1 1 0 0 0 0 0 0 0 -0 -0 2 8 4 -0 0 -0 2 4 5 5 6 6 6 5 8 6 6 6 6 7 7 6 7 7 6 5 5 4 6 7
2 2 2 2 2 1 1 0 0 0 0 0 -0 -0 1 5 5 3 2 2 3 4 5 5 5 5 7 6 6 7 6 7 6 7 7 7 8 7 6 5 4 5 6 6 7
2 3 3 3 2 2 1 1 0 0 0 -0 -0 0 3 8 3 3 4 4 4 4 5 5 5 5 6 7 7 6 7 7 6 7 7 8 7 8 6 5 5 5 7 6 6
3 3 3 3 2 2 2 1 1 0 0 0 -0 1 4 6 3 3 4 4 4 4 5 5 4 5 5 7 6 7 9 7 7 7 8 7 9 8 6 6 6 6 6 6 6
4 4 4 4 3 3 2 1 1 1 0 -0 -1 2 6 3 2 4 4 5 4 4 4 4 4 5 6 6 7 8 8 10 7 7 8 8 10 7 5 6 7 6 6 7 6
4 4 4 4 4 3 3 2 1 1 0 -0 1 3 7 3 4 3 4 5 5 4 4 5 4 5 6 8 8 8 10 9 8 7 8 9 9 7 6 7 7 7 6 6 6
4 4 4 4 4 4 3 2 2 2 1 2 3 5 5 6 4 4 4 4 6 5 6 6 6 7 7 8 11 10 10 9 9 8 9 9 10 8 7 7 7 7 7 6 6
3 4 4 4 4 4 3 5 6 7 5 6 6 6 6 4 4 5 5 6 5 6 8 7 9 10 8 7 8 8 9 10 9 7 9 9 9 8 7 7 7 7 7 6 6
3 3 3 4 4 4 4 7 6 7 10 7 6 6 5 4 6 6 5 8 8 9 8 9 10 8 7 8 8 9 10 10 8 8 10 10 10 9 8 8 7 7 7 7 6
3 3 3 3 3 4 6 7 5 5 9 9 7 8 7 6 7 6 6 7 8 9 9 10 9 8 8 9 10 10 10 10 10 8 10 11 12 10 9 8 8 7 7 7 7
3 3 3 3 5 4 6 6 5 6 13 12 11 9 7 7 10 7 6 7 8 10 9 9 8 9 9 10 9 12 9 9 10 11 13 11 15 11 10 9 9 8 8 7 7
3 3 3 4 5 5 6 5 5 7 17 12 11 7 7 9 9 10 8 8 10 10 9 10 9 10 11 10 9 11 11 11 10 11 12 12 14 12 11 12 11 10 8 7 6
3 3 3 4 4 4 5 5 6 14 18 13 10 11 10 10 11 10 9 8 9 10 9 10 10 9 9 11 10 10 11 11 12 12 16 12 13 13 12 12 10 9 8 8 8
3 3 4 4 5 4 5 7 14 17 13 13 12 11 11 11 11 12 12 13 12 14 13 10 10 9 10 11 11 11 11 14 15 16 16 11 13 12 10 10 9 9 8 8 8
3 3 4 4 3 3 6 10 17 14 13 11 11 11 12 10 11 11 12 13 12 11 12 12 13 10 10 10 9 12 11 14 18 17 15 13 16 13 9 8 9 9 8 8 9
3 4 5 4 4 5 10 15 15 13 11 11 11 13 13 11 11 11 11 11 10 11 14 13 13 11 10 10 9 12 14 10 13 15 16 14 12 10 10 10 10 10 10 9 9
3 5 5 4 6 7 13 15 11 10 10 11 14 12 14 12 13 12 12 10 10 9 8 11 14 12 15 12 12 12 11 14 13 18 18 16 14 13 12 12 11 11 10 9 9
4 7 5 5 6 10 16 15 11 9 10 13 13 13 12 12 11 12 12 10 9 10 8 9 10 13 14 15 14 15 15 15 14 13 17 18 16 12 12 11 10 10 10 10 8
5 9 5 5 11 12 15 12 10 11 11 13 12 13 13 12 13 12 12 11 9 10 13 11 11 14 13 11 12 12 12 13 16 17 15 16 16 11 10 10 9 10 10 8 8
6 7 5 5 12 14 12 12 10 10 11 13 14 13 13 14 16 13 12 10 11 11 12 12 14 16 15 15 15 15 14 14 12 13 16 17 16 10 10 10 10 10 9 9 9
6 10 8 8 7 9 12 11 12 9 10 10 13 12 14 15 13 15 13 11 10 11 11 11 14 15 17 15 13 15 15 14 14 16 16 16 14 12 11 10 9 9 8 8 9
5 9 8 12 11 9 9 10 11 12 10 10 12 13 14 15 14 15 13 13 11 12 12 12 16 14 14 13 13 14 14 14 15 15 16 15 14 12 11 10 10 9 9 9 9
8 8 8 8 8 9 10 11 11 10 10 10 12 11 12 14 13 12 11 13 13 13 13 12 16 15 16 14 14 16 14 14 14 14 14 14 15 11 10 10 10 9 9 9 9
5 6 10 10 9 10 11 10 10 9 8 8 8 10 10 11 10 9 8 8 9 13 14 14 15 16 18 14 15 17 15 14 13 13 13 15 12 10 10 9 9 8 8 9 8

GFSSW_con_lsi_024.txt.gz
Lid_Strength_Index
1 1 0 0 0 -0 -0 -0 -0 -0 -0 -1 -0 -1 -1 -1 -0 3 5 2 1 -1 1 3 4 4 3 4 4 5 10 11 9 10 10 8 9 8 8 9 8 7 9 8 6
2 2 1 1 1 0 0 -0 -0 -0 -0 -0 -0 -0 -1 -0 3 4 0 -1 -1 -1 3 5 5 5 6 5 5 7 10 9 8 9 10 8 9 8 10 9 9 8 8 8 8
2 2 2 2 1 1 0 0 -0 -0 -0 -0 -0 -0 -0 0 4 4 -1 -1 -1 0 3 4 4 5 6 5 6 7 9 8 7 8 8 8 9 8 9 10 9 9 8 9 9
2 2 2 2 2 1 1 0 0 0 -0 -0 -0 -0 -0 1 9 3 -1 -0 -0 2 4 5 5 6 7 7 6 9 7 7 7 7 8 9 8 9 8 9 7 7 7 8 9
2 2 2 2 2 1 1 1 1 0 0 -0 -0 -0 1 5 5 3 0 1 3 4 5 6 7 6 8 7 7 9 8 7 7 8 8 8 9 9 9 8 7 7 8 9 8
2 3 3 3 2 2 2 1 1 0 0 0 -0 0 3 8 3 3 4 4 4 5 5 5 6 6 7 8 9 8 8 8 8 8 8 9 9 9 8 7 7 7 9 8 8
2 2 3 3 3 3 3 2 1 1 1 0 0 1 5 6 3 4 4 5 5 5 6 5 5 6 6 8 7 8 10 9 8 8 9 9 11 10 8 8 8 8 8 8 8
3 3 3 4 3 3 3 3 2 2 1 1 0 2 7 3 4 4 4 5 4 4 5 5 5 6 7 7 8 10 10 13 9 8 9 9 13 9 7 8 9 9 9 9 8
4 4 4 4 4 4 3 3 3 2 2 1 3 4 7 3 5 4 4 5 5 5 5 5 5 7 7 10 11 10 13 12 10 8 10 10 12 9 9 10 9 9 9 8 8
4 4 4 4 4 4 3 3 2 3 3 2 4 7 7 7 5 4 5 5 6 6 7 7 8 10 10 11 14 13 13 12 12 10 10 12 12 9 9 10 10 10 9 9 8
3 3 3 3 3 3 4 5 7 7 6 8 7 8 7 6 5 6 5 6 6 7 11 9 11 13 11 10 9 10 11 12 10 9 10 11 11 10 9 9 10 9 8 8 8
2 2 3 2 2 3 4 7 7 7 11 8 8 7 6 5 8 7 6 9 9 11 10 11 12 10 9 9 10 11 12 12 10 10 11 11 12 10 10 9 9 9 9 8 10
2 2 3 3 3 4 6 6 4 5 10 10 8 9 8 7 9 9 9 9 11 12 11 12 11 8 9 11 11 11 13 12 12 11 13 14 14 13 11 10 9 9 8 8 10
2 3 3 3 5 5 6 5 4 5 14 12 10 9 8 8 11 8 8 9 10 12 11 12 10 10 11 12 11 14 11 11 12 14 16 13 18 14 13 12 11 10 10 10 10
3 3 3 3 5 6 6 5 5 7 20 11 12 7 8 10 11 11 9 10 12 12 12 13 12 12 12 12 10 12 11 13 13 14 15 15 17 15 12 13 12 11 10 9 10
3 3 4 4 4 4 4 5 7 15 20 13 11 11 11 10 11 11 11 10 10 12 12 12 11 12 12 12 11 12 13 14 14 16 19 16 15 17 15 13 12 11 11 10 10
3 3 4 3 6 4 5 7 15 18 12 13 12 11 12 12 11 12 13 14 15 16 16 14 13 13 12 13 13 13 14 18 19 20 20 14 16 14 13 13 12 12 11 11 10
3 3 4 4 4 5 7 12 18 12 13 11 11 11 13 11 11 12 13 15 13 13 15 15 16 13 13 13 13 14 13 17 21 20 17 16 19 16 11 11 11 11 10 11 11
3 4 5 4 4 5 10 17 15 11 10 11 11 13 13 12 12 12 13 14 12 12 15 15 15 13 12 12 12 15 16 12 16 20 20 17 16 13 13 12 12 11 12 13 12
4 5 6 3 4 7 13 14 12 8 9 10 14 13 15 14 14 13 13 12 12 11 10 13 15 14 15 13 14 14 13 18 17 23 24 18 18 17 14 12 13 14 13 13 12
5 7 5 4 4 9 15 14 10 8 8 11 12 14 14 15 14 14 13 12 11 10 10 12 13 15 15 17 16 17 16 15 15 16 20 20 19 15 14 13 13 13 12 12 11
4 9 5 4 10 11 13 11 10 10 9 11 12 12 13 12 14 14 15 14 11 11 13 12 13 16 14 13 14 14 15 14 17 18 18 17 17 12 13 13 12 12 11 11 11
6 7 4 4 12 12 13 11 9 10 9 10 11 11 11 13 15 13 12 10 10 12 13 12 15 19 17 15 16 17 15 14 14 15 17 19 17 12 11 13 13 13 13 12 12
6 10 7 7 6 9 11 11 11 9 9 9 9 10 12 14 12 14 14 12 11 10 10 10 14 16 18 16 14 16 15 15 14 16 17 17 16 13 12 12 11 11 12 12 12
7 8 7 11 10 9 9 10 11 12 8 8 10 10 11 13 12 13 13 13 11 10 11 13 16 15 14 13 13 14 15 15 15 15 17 16 16 14 12 12 11 11 10 11 11
9 8 9 9 9 10 10 11 11 10 9 10 11 10 10 12 11 12 12 11 11 12 11 12 16 15 16 14 14 16 14 14 15 15 14 14 15 11 11 11 11 11 10 10 10
6 6 9 11 10 11 10 10 10 9 8 8 9 10 11 10 8 7 7 8 9 10 12 13 14 16 17 15 15 17 16 15 14 13 13 16 13 11 11 11 11 10 9 9 9

GFSSW_con_lsi_027.txt.gz
Lid_Strength_Index
2 1 1 1 1 0 -0 -0 -0 -0 -0 -0 -0 -1 -1 -1 -0 3 6 3 2 -1 1 5 5 6 6 6 6 7 12 14 12 11 11 10 11 10 9 10 10 8 9 9 8
2 2 2 2 1 1 0 0 0 0 -0 -0 0 -0 -0 -0 3 5 1 -3 -2 -1 5 6 7 7 8 7 7 9 13 11 10 11 11 10 10 9 11 11 10 10 10 8 8
2 2 2 2 2 1 1 1 1 0 0 0 0 0 0 1 5 5 -2 -3 -2 -0 4 6 6 7 9 8 9 10 11 10 9 9 9 10 10 9 10 11 10 10 10 9 10
2 2 2 2 2 1 1 1 1 1 0 0 0 0 0 2 13 5 -2 -2 -1 3 5 7 7 8 10 10 8 11 9 8 8 9 9 10 9 10 10 9 8 8 8 9 10
2 2 2 2 2 2 1 1 1 1 1 1 0 0 2 7 7 3 -1 -0 3 4 7 7 8 8 10 9 9 10 9 8 8 9 9 9 10 10 10 9 8 8 9 9 9
2 2 2 2 3 2 2 2 2 1 1 1 0 0 6 10 5 3 5 5 5 6 7 7 8 8 9 9 11 10 9 9 9 9 9 10 11 10 9 9 9 9 9 10 9
2 2 2 2 2 2 2 2 2 2 2 2 1 2 6 9 5 5 6 6 6 6 7 7 7 8 9 9 9 9 11 11 10 9 10 10 11 11 8 9 9 9 9 10 9
2 2 2 2 2 2 3 3 3 2 2 1 1 4 10 5 7 7 7 7 6 6 6 6 7 7 8 8 10 12 13 14 11 10 10 10 13 10 8 10 9 10 10 10 9
3 4 4 3 3 3 3 3 3 3 2 1 4 7 10 4 7 6 7 7 7 7 6 6 7 9 9 12 14 13 15 14 12 10 11 11 13 11 9 10 10 11 10 10 10
3 4 3 3 3 3 3 3 3 3 3 3 4 9 8 9 7 7 8 7 8 8 8 9 10 12 12 14 16 16 15 14 14 12 12 13 13 10 10 11 11 11 11 10 9
3 3 3 3 3 3 4 7 10 10 8 10 10 10 8 7 7 8 8 8 8 10 13 11 14 14 12 11 12 13 14 15 13 11 12 12 12 11 10 11 11 9 9 10 9
2 2 2 2 2 2 5 8 9 9 13 9 9 9 7 7 9 8 8 11 11 14 13 13 15 12 11 11 12 13 13 14 12 11 12 13 13 11 11 10 11 10 10 9 9
2 2 2 3 3 5 7 8 6 7 12 11 9 10 10 7 10 9 9 11 13 14 14 14 14 11 11 12 13 13 14 14 14 12 13 14 15 14 12 11 10 9 9 8 9
2 2 2 3 5 6 8 7 7 8 18 15 12 10 9 9 12 9 9 11 13 14 14 14 12 12 13 13 12 14 12 13 13 15 16 14 18 15 13 12 11 10 10 10 9
2 3 3 3 7 8 7 7 8 10 23 13 12 8 9 12 12 11 10 11 13 13 14 15 15 14 14 13 13 13 13 13 15 16 17 16 18 17 13 14 13 11 10 9 10
3 3 3 5 7 7 6 8 10 18 22 15 12 12 12 12 12 12 11 11 11 13 13 14 13 13 13 14 13 14 15 15 16 17 20 17 16 18 17 13 13 11 10 10 10
3 3 4 4 6 6 7 10 16 19 14 15 14 12 13 13 13 13 14 15 15 17 18 15 14 13 13 15 14 14 16 20 21 22 21 16 18 16 14 13 12 11 11 10 11
3 3 4 4 5 6 7 11 17 14 15 12 13 13 14 13 13 13 15 16 15 15 17 17 17 14 13 13 15 16 14 19 23 22 19 19 21 17 12 10 11 11 11 12 12
3 4 5 4 4 6 9 16 14 13 10 11 10 14 15 14 14 14 16 16 14 14 16 17 17 14 14 13 12 16 17 13 18 23 22 17 17 14 14 13 13 13 13 13 13
4 5 6 4 5 7 13 13 13 10 9 10 13 12 14 15 15 13 14 14 13 12 11 13 16 14 15 15 15 15 14 18 18 22 24 19 18 16 16 13 12 14 14 13 13
6 8 6 4 5 10 15 13 11 10 9 11 12 12 13 13 14 14 14 13 13 12 12 13 14 15 16 16 16 17 16 16 16 17 19 19 17 15 15 13 13 12 13 13 12
5 10 5 4 9 10 13 11 9 10 9 9 11 11 11 11 12 12 12 12 11 12 13 12 14 16 15 14 14 14 13 14 17 18 18 18 17 12 13 14 13 13 12 12 11
7 6 4 4 12 11 10 10 9 10 9 9 10 9 8 11 13 12 11 9 8 9 12 12 15 18 16 14 15 15 15 14 14 15 17 19 17 12 12 13 13 14 13 13 12
8 10 7 7 7 9 11 11 11 9 9 8 9 8 10 12 10 12 12 10 10 10 8 9 14 15 18 14 14 15 14 14 15 17 17 17 16 13 12 12 11 10 9 10 10
9 11 9 11 10 9 9 10 11 11 8 8 10 10 11 13 12 13 11 10 9 8 9 10 15 14 13 12 12 13 14 13 15 14 16 15 15 13 12 11 11 10 10 11 12
10 11 9 11 9 9 9 11 11 10 10 11 11 10 10 12 12 13 11 11 11 11 11 10 15 13 15 13 13 14 13 13 13 14 14 13 13 10 9 9 9 9 9 10 10
8 7 8 12 13 12 12 10 10 9 9 8 9 11 11 10 9 10 10 11 10 11 11 12 13 15 18 14 14 17 14 13 12 11 12 15 12 10 11 10 10 9 8 9 9

GFSSW_con_lsi_030.txt.gz
Lid_Strength_Index
2 2 1 1 1 1 0 0 0 0 0 0 -0 -0 -0 -1 -0 4 7 4 3 -2 0 5 6 6 7 7 7 9 14 15 13 12 12 11 11 10 10 11 10 8 10 9 8
2 2 2 2 2 1 1 1 1 0 0 0 0 0 0 -0 4 6 2 -2 -3 -2 5 7 8 8 9 8 8 10 14 13 11 11 12 11 11 11 11 12 11 10 10 9 9
2 2 2 2 2 2 1 1 1 1 1 0 0 0 0 1 7 7 -2 -3 -2 -1 5 6 7 7 10 9 9 10 12 10 9 10 10 11 11 10 11 11 11 10 10 10 10
2 2 2 2 2 2 1 1 1 1 1 1 1 0 0 3 13 6 -2 -2 -2 4 6 7 8 9 10 10 9 11 9 9 8 9 10 11 10 11 11 8 9 9 9 10 10
2 2 2 2 2 2 2 2 1 1 1 1 1 0 3 8 8 3 -1 -1 3 5 7 8 9 9 10 10 10 10 10 9 9 9 10 9 10 11 11 9 9 9 10 10 10
1 2 2 2 2 2 2 2 2 2 2 1 1 1 7 12 6 3 5 5 6 6 8 8 9 8 9 9 11 11 10 9 9 9 9 10 11 11 9 10 9 9 10 10 9
2 2 3 2 3 2 2 2 2 2 1 2 1 3 7 10 6 5 6 7 7 7 9 8 8 9 10 10 9 10 11 11 10 10 10 10 12 11 8 10 9 10 10 10 9
2 2 2 2 2 2 1 2 2 2 2 2 1 5 11 7 7 7 8 8 8 8 8 8 7 8 9 9 10 12 13 14 12 11 10 10 13 10 9 10 10 10 10 10 10
3 3 3 3 3 2 2 2 2 2 2 1 5 8 11 5 8 7 8 9 8 8 8 7 8 10 10 13 15 15 17 16 13 11 11 12 13 10 10 11 11 11 10 10 9
3 3 3 3 3 3 3 2 3 4 4 3 4 10 9 10 8 8 8 8 9 9 10 10 12 14 13 15 18 17 17 15 15 13 13 13 13 10 10 12 12 12 12 11 10
3 3 3 3 3 2 4 8 11 12 9 11 11 11 10 8 7 8 8 9 9 11 14 13 15 16 14 13 13 16 16 16 14 12 13 13 12 11 9 11 12 11 10 10 11
2 2 2 2 2 2 7 9 10 10 14 10 10 9 8 8 10 9 8 11 11 14 13 15 16 13 13 14 14 14 15 15 13 12 14 13 13 12 11 10 9 10 10 9 9
2 2 2 2 2 5 7 8 7 7 13 11 10 11 11 8 11 10 9 11 13 14 14 15 14 12 13 15 15 15 16 15 15 14 15 16 16 15 13 11 10 9 9 9 8
2 2 2 2 5 7 9 7 7 8 18 15 12 11 10 10 13 10 10 11 13 14 14 15 12 13 14 15 14 16 13 14 14 17 18 16 20 17 15 13 12 11 10 10 9
2 2 2 3 6 7 7 7 8 12 21 13 13 9 10 13 13 12 11 11 14 14 14 15 14 15 15 14 13 14 14 15 16 18 19 18 19 17 14 15 13 11 11 10 9
3 2 2 4 6 7 7 8 11 17 20 15 13 13 13 13 13 12 12 11 12 14 14 14 13 13 13 13 13 14 15 16 18 18 20 18 18 19 18 15 14 12 11 11 10
3 3 4 4 7 6 7 9 14 17 14 15 15 13 14 14 14 14 15 15 16 18 18 17 15 13 13 15 14 14 16 20 22 22 21 17 19 16 15 14 13 12 11 11 10
4 3 4 3 5 6 7 11 17 13 15 12 13 14 15 14 14 14 16 17 15 17 18 19 18 15 14 13 15 16 15 20 24 21 18 19 20 15 13 12 12 12 11 11 11
4 4 5 4 5 5 8 14 14 12 11 13 12 15 16 14 14 15 17 16 15 14 17 18 17 15 14 14 13 17 18 14 19 26 23 17 16 13 14 13 13 13 12 13 13
6 5 5 4 4 7 11 13 11 10 10 11 13 13 16 15 14 14 15 15 14 14 12 14 17 15 16 15 14 14 14 18 19 24 25 20 19 16 14 13 13 14 13 13 13
6 9 7 3 5 9 14 13 11 9 9 10 11 12 14 13 13 13 13 13 13 13 12 13 14 15 15 16 15 17 17 16 16 17 19 19 17 11 12 14 14 12 13 13 14
6 11 5 3 9 9 11 10 9 10 9 9 9 10 11 11 12 12 13 11 12 11 12 10 12 15 14 11 13 14 14 15 17 18 17 16 16 10 10 11 14 13 13 13 13
7 7 3 3 12 11 9 9 8 9 9 9 10 9 9 11 13 11 11 8 7 9 10 10 14 18 17 14 12 14 13 14 13 14 16 18 16 10 10 10 11 13 11 10 10
9 11 6 5 6 9 10 11 11 7 9 8 9 8 10 12 10 12 11 9 8 8 7 8 12 15 18 15 12 14 14 14 14 16 16 16 15 12 11 11 10 10 9 9 9
10 12 8 11 10 9 9 10 11 11 8 8 10 10 11 13 12 13 11 10 9 8 8 9 15 13 13 12 12 12 13 12 13 13 15 14 14 12 11 10 9 9 9 9 10
11 11 10 11 10 10 9 11 11 10 10 11 11 10 10 12 12 13 13 13 13 12 12 10 15 13 15 13 13 14 13 12 12 12 12 12 13 9 7 7 7 8 7 7 8
9 7 8 12 12 13 13 11 10 10 9 8 11 13 13 11 11 10 10 10 11 12 13 13 13 15 17 13 14 17 14 13 12 11 12 15 11 8 9 8 8 8 7 8 10

GFSSW_con_lsi_033.txt.gz
Lid_Strength_Index
1 1 1 1 1 1 0 0 0 0 0 0 0 0 0 -0 0 4 8 4 3 -2 2 6 6 7 7 8 8 10 14 15 14 13 12 12 12 11 10 11 11 9 10 10 9
2 2 1 1 1 1 1 1 1 1 1 0 0 0 0 0 4 7 2 -2 -2 -2 6 7 8 8 9 9 9 11 15 14 12 12 12 11 11 11 11 12 11 10 10 10 9
2 2 2 2 2 2 1 1 1 1 1 1 0 0 0 1 8 9 -1 -3 -3 -0 6 7 8 8 10 10 9 11 13 11 10 9 10 11 12 11 12 12 11 10 10 10 10
2 2 2 2 2 2 2 1 1 1 1 1 1 0 0 4 13 8 -2 -2 -2 4 6 8 9 10 11 11 9 12 10 10 9 9 10 11 11 11 11 8 9 9 10 10 11
1 2 2 2 2 2 2 2 2 2 1 1 1 0 4 10 9 4 -1 -1 4 6 8 9 10 10 11 11 11 11 10 9 9 9 10 10 10 11 11 9 9 9 10 10 10
1 2 2 2 2 2 1 1 1 2 2 2 2 1 8 13 7 3 4 6 7 8 9 9 10 10 11 11 11 11 11 10 10 10 10 10 10 11 8 10 9 10 10 10 10
1 1 2 2 2 2 2 2 2 2 2 2 1 2 8 10 7 5 6 8 7 8 10 9 9 11 11 12 10 11 12 12 11 10 10 11 12 12 8 10 10 10 10 11 10
2 2 2 2 2 2 2 1 1 1 1 1 1 5 12 7 8 8 8 9 8 8 8 9 9 10 11 11 12 14 14 15 13 12 11 11 14 10 10 10 10 10 11 11 10
2 3 3 2 2 2 2 2 2 2 2 1 5 8 11 5 9 8 9 9 9 9 9 7 9 12 12 15 16 17 18 17 15 11 12 12 14 11 11 12 11 11 11 11 11
3 3 3 3 3 3 2 3 3 4 3 3 5 11 10 10 8 8 9 9 10 10 11 11 12 14 15 16 19 18 19 18 17 14 14 14 14 11 10 12 11 11 11 11 10
2 2 2 2 2 2 4 8 12 13 9 11 10 11 11 9 8 9 9 9 10 12 14 13 16 17 14 14 14 17 18 18 15 14 15 15 14 13 11 11 12 11 10 9 9
1 2 2 2 2 2 7 9 10 10 13 11 10 10 9 8 11 9 8 11 12 14 14 15 17 13 14 15 15 15 16 16 14 13 16 15 15 13 12 12 11 10 10 10 9
2 2 2 2 2 5 8 9 7 8 13 12 11 11 11 9 11 10 9 11 13 15 15 15 14 13 14 15 16 17 17 16 16 15 16 17 16 15 13 12 11 10 10 10 10
2 3 2 2 5 7 8 7 7 9 17 15 13 12 10 10 13 10 10 11 14 14 15 15 13 14 15 15 15 16 14 15 15 17 18 17 20 17 15 15 13 12 11 11 10
3 3 3 3 7 7 7 7 8 12 20 13 14 10 11 14 13 13 11 12 15 15 15 16 15 16 16 14 14 15 14 15 16 18 19 19 20 18 15 16 14 12 11 10 10
3 3 3 5 6 6 6 8 10 14 19 14 14 14 14 14 14 13 13 12 13 15 15 15 14 14 14 14 14 14 16 16 18 19 21 17 18 18 18 15 14 13 12 11 11
4 3 4 4 6 6 7 9 13 17 13 15 16 15 16 16 15 15 15 16 16 18 19 17 16 15 14 16 15 15 17 21 22 23 20 18 19 16 15 13 13 12 11 11 11
4 4 3 3 5 5 6 10 17 13 14 13 14 15 15 15 14 15 17 17 16 18 19 19 18 16 15 14 15 16 16 20 25 22 18 19 21 15 13 13 12 12 12 12 12
5 4 4 4 4 4 8 15 14 12 11 12 11 13 15 15 14 16 17 17 16 15 17 18 18 16 15 14 14 17 18 15 19 26 23 17 17 13 13 14 13 13 13 13 13
7 7 6 3 4 6 10 13 12 10 10 11 14 12 16 16 16 15 16 15 15 15 13 15 17 16 17 16 15 15 15 18 18 22 24 19 19 17 15 13 12 13 12 12 12
6 9 7 2 3 8 13 12 11 9 9 11 12 12 12 13 12 12 12 12 13 14 13 12 13 15 14 16 15 16 16 16 15 16 18 20 17 11 12 10 11 12 12 12 12
7 12 4 3 9 9 12 10 9 10 9 9 9 10 11 11 13 12 13 11 11 11 12 11 12 16 15 11 12 13 14 13 15 17 16 16 16 10 9 9 10 10 11 12 12
8 8 2 4 12 11 9 9 8 9 9 9 10 9 9 11 14 11 11 9 8 9 11 10 13 17 16 14 14 14 12 11 12 13 17 19 17 10 9 9 8 9 10 12 12
9 12 7 5 6 9 10 10 11 7 9 8 9 8 10 12 10 12 11 9 8 8 7 8 12 15 18 15 12 14 13 12 13 16 16 15 13 11 9 9 8 8 8 8 8
11 13 9 11 9 9 9 10 11 11 8 8 10 10 11 13 12 13 11 11 10 8 9 10 15 14 13 13 13 13 14 13 14 13 15 14 13 11 9 9 8 7 7 7 9
11 12 10 11 11 11 10 10 11 10 9 10 11 11 10 12 12 13 14 13 14 12 14 12 15 13 16 14 13 14 13 13 13 13 13 13 13 9 9 10 10 10 11 11 12
10 9 9 12 13 14 12 11 11 11 10 9 12 13 13 12 11 11 11 11 12 14 14 13 14 15 17 16 16 18 14 14 13 12 12 15 14 14 15 15 14 13 14 13 13

GFSSW_con_lsi_036.txt.gz
Lid_Strength_Index
1 1 1 1 1 1 1 0 0 0 0 0 -0 -0 -0 -0 0 4 8 5 4 -2 2 6 7 8 8 8 9 11 14 15 14 14 12 12 12 11 11 10 10 9 10 10 9
1 1 1 1 1 1 1 1 1 1 1 0 0 0 0 0 5 7 2 -1 -3 -1 7 8 9 9 10 10 9 11 15 14 13 13 12 12 12 11 10 11 11 10 10 10 9
1 1 1 1 1 1 1 1 1 1 1 1 1 0 0 1 10 10 -1 -2 -3 0 6 8 8 9 11 10 10 11 13 12 11 11 11 11 12 11 12 12 10 10 10 10 10
1 1 1 2 2 1 1 1 1 1 1 1 1 1 0 5 13 9 -2 -2 -2 6 7 8 9 11 12 12 10 12 10 11 10 10 10 11 11 11 11 8 8 9 9 10 10
1 1 2 2 2 1 1 1 1 1 1 1 1 1 4 11 10 4 -1 -1 5 7 8 10 11 11 13 13 12 12 11 10 10 10 10 10 10 11 11 9 9 10 10 10 10
1 1 1 2 2 1 1 1 1 1 1 1 1 1 9 13 8 2 3 6 7 8 9 10 11 10 12 12 12 13 12 12 11 10 10 10 10 12 10 10 9 10 10 10 10
1 1 1 1 1 1 1 1 1 1 1 1 2 3 9 10 6 4 5 7 8 8 10 10 10 11 12 13 12 13 13 13 13 12 12 11 12 13 9 11 10 11 11 11 11
2 2 2 2 2 1 1 1 1 1 1 1 1 6 11 7 7 7 8 9 9 9 9 10 10 11 12 12 13 16 15 17 15 13 13 12 15 11 11 12 11 11 12 12 11
2 2 2 2 2 2 2 1 2 1 2 2 6 10 12 5 8 8 8 9 9 10 10 8 10 12 13 15 17 18 19 18 16 13 14 14 16 13 12 13 12 11 11 10 11
3 3 3 2 2 2 2 3 3 4 3 3 6 12 11 11 9 9 10 9 10 11 11 12 13 15 15 17 19 19 19 18 18 14 16 16 16 13 12 13 13 11 11 10 10
2 2 2 2 2 1 4 9 10 12 10 11 11 12 11 10 9 10 9 10 10 12 15 14 16 17 14 15 16 17 18 19 15 14 16 16 15 14 12 12 12 12 12 11 10
1 1 1 1 1 2 8 10 11 11 13 10 11 10 9 9 11 10 9 11 12 14 14 16 17 13 14 15 15 16 17 17 15 13 16 16 16 14 13 12 12 11 11 11 11
2 2 2 2 3 7 9 9 8 9 14 12 11 12 11 9 12 10 10 12 13 15 15 16 15 13 15 16 16 17 18 16 17 16 16 17 18 17 14 13 12 11 10 10 11
2 3 3 3 5 8 9 8 8 11 15 14 14 12 11 11 14 10 11 12 15 15 15 16 14 14 16 16 15 17 15 15 16 18 20 17 20 18 15 14 14 12 12 12 12
3 3 3 2 7 6 8 9 10 13 20 13 15 11 11 14 14 13 11 13 15 15 15 16 16 16 16 15 15 16 15 16 17 19 20 20 20 18 17 16 14 13 13 12 12
4 3 3 4 6 6 7 8 10 14 19 14 15 15 14 13 13 13 13 13 14 15 16 16 15 15 15 15 14 15 16 17 19 19 22 19 19 19 18 16 15 14 13 12 12
4 4 3 3 6 6 6 7 13 17 12 15 16 15 16 16 15 15 16 16 17 19 19 18 16 15 15 17 16 16 18 21 22 23 20 19 20 16 16 15 14 12 12 12 12
5 4 4 3 5 4 5 9 17 13 12 11 13 14 15 14 14 15 17 18 16 17 19 19 18 16 15 15 16 17 17 20 24 22 18 20 21 16 14 14 13 13 13 12 12
5 5 5 3 4 4 7 14 14 12 11 11 11 12 13 13 13 14 16 16 15 15 16 19 19 16 16 15 15 18 18 15 18 23 23 18 17 14 13 14 15 14 13 12 12
8 7 7 2 2 5 9 13 12 9 10 10 13 12 16 14 15 15 15 15 15 15 13 15 16 15 16 15 16 15 15 18 18 20 21 19 18 17 15 14 13 13 12 11 11
7 10 7 2 2 7 13 12 11 9 8 10 12 12 12 13 12 12 13 13 13 13 13 13 13 15 15 17 16 16 16 16 15 16 19 20 16 13 13 13 13 13 11 11 11
7 13 4 1 8 8 12 10 8 8 8 9 9 10 12 11 12 12 13 11 10 9 11 11 13 16 15 12 12 12 12 12 16 17 16 16 16 11 10 10 10 10 8 10 11
9 8 3 2 12 11 9 9 8 9 9 9 10 9 9 11 13 11 11 8 8 9 10 10 14 18 17 15 14 14 13 11 11 12 17 19 16 9 9 9 8 10 10 11 12
10 14 9 5 6 9 10 10 10 7 8 8 9 8 10 11 10 12 11 9 9 9 7 8 12 15 18 15 12 14 13 12 13 17 17 16 15 12 10 10 13 12 12 12 12
11 13 11 12 11 10 9 9 11 11 9 8 10 10 11 13 12 13 11 11 10 9 9 10 15 13 13 13 13 14 14 14 15 15 17 15 15 12 16 15 15 13 13 14 14
13 13 11 11 11 11 10 11 11 10 9 10 11 10 10 12 11 13 13 13 14 13 13 11 16 14 16 14 15 17 16 17 16 16 15 14 14 15 16 15 14 14 15 15 14
11 10 10 13 13 14 14 12 13 12 11 10 12 13 13 12 12 11 11 11 12 14 15 14 17 20 19 15 17 20 17 16 16 14 15 16 17 15 16 16 14 14 13 15 14